Iowa City, IA

3:49 AM CDT on October 17, 2017 (GMT -0500)
Iowa City Municipal

Weather History for KIOW - April, 2014

Change the Weather History Date:

Sunday, April 27, 2014

  Actual Average Record
Temperature  
Mean Temperature 57 °F 55 °F  
Max Temperature 71 °F 65 °F 86 °F (1981)
Min Temperature 42 °F 44 °F 29 °F (1953)
Degree Days  
Heating Degree Days 8 11  
Month to date heating degree days 423 397  
Since 1 July heating degree days 7259 6164  
Cooling Degree Days 0 0  
Month to date cooling degree days 3 0  
Year to date cooling degree days 3 0  
Growing Degree Days 6 (Base 50)    
Moisture  
Dew Point 48 °F    
Average Humidity 72    
Maximum Humidity 100    
Minimum Humidity 44    
Precipitation  
Precipitation 1.71 in 0.17 in 1.71 in (2014)
Month to date precipitation 5.33 3.00  
Year to date precipitation 7.79 7.38  
Sea Level Pressure  
Sea Level Pressure 29.70 in    
Wind  
Wind Speed 17 mph (East)    
Max Wind Speed 40 mph    
Max Gust Speed 51 mph    
Visibility 7 miles    
Events Fog , Rain , Thunderstorm    
T = Trace of Precipitation, MM = Missing Value Source: NWS Daily Summary

Daily Weather History Graph

Daily Weather History Graph

Search for Another Location

Airport or City:

Trip Planner

Search our weather history database for the weather conditions in past years. The results will help you decide how hot, cold, wet, or windy it might be!

Date:

Astronomy

Apr. 27, 2014 Rise Set
Actual Time 6:08 AM CDT 8:00 PM CDT
Civil Twilight 5:38 AM CDT 8:29 PM CDT
Nautical Twilight 5:02 AM CDT 9:06 PM CDT
Astronomical Twilight 4:23 AM CDT 9:45 PM CDT
Moon 5:10 AM CDT (4/27) 6:33 PM CDT (4/27)
Length of Visible Light 14h 51m
Length of Day
13h 51m
Waning Crescent, 3% of the Moon is Illuminated
Apr 27
Waning Crescent
Apr 29
New
May 6
First Quarter
May 14
Full
May 21
Last Quarter

Hourly Weather History & Observations

Time (CDT) Temp. Windchill Dew Point Humidity Pressure Visibility Wind Dir Wind Speed Gust Speed Precip Events Conditions
12:52 AM 45.0 °F 37.1 °F 32.0 °F 60% 29.89 in 10.0 mi East 19.6 mph 25.3 mph N/A   Partly Cloudy
1:38 AM 43.0 °F 34.5 °F 33.1 °F 68% 29.89 in 10.0 mi East 19.6 mph 25.3 mph 0.00 in Rain , Thunderstorm Light Rain
1:52 AM 43.0 °F 38.2 °F 34.0 °F 71% 29.89 in 10.0 mi East 8.1 mph 24.2 mph 0.01 in Rain Light Rain
1:56 AM 43.0 °F 36.8 °F 35.1 °F 74% 29.87 in 10.0 mi East 11.5 mph 24.2 mph 0.00 in Rain , Thunderstorm Light Thunderstorms and Rain
2:14 AM 42.1 °F 33.9 °F 35.1 °F 76% 29.87 in 10.0 mi East 17.3 mph 29.9 mph 0.00 in   Mostly Cloudy
2:52 AM 42.1 °F 33.6 °F 35.1 °F 76% 29.86 in 10.0 mi East 18.4 mph 29.9 mph 0.00 in   Mostly Cloudy
4:52 AM 42.1 °F 34.5 °F 36.0 °F 79% 29.82 in 10.0 mi East 15.0 mph 21.9 mph N/A   Partly Cloudy
5:52 AM 43.0 °F 36.0 °F 37.0 °F 80% 29.79 in 10.0 mi East 13.8 mph 21.9 mph N/A   Clear
6:52 AM 44.1 °F 38.1 °F 37.9 °F 79% 29.79 in 10.0 mi East 11.5 mph 18.4 mph N/A   Clear
7:52 AM 46.0 °F 40.6 °F 39.0 °F 76% 29.78 in 10.0 mi East 11.5 mph 23.0 mph N/A   Mostly Cloudy
8:52 AM 50.0 °F - 42.1 °F 74% 29.73 in 10.0 mi East 19.6 mph 29.9 mph N/A   Clear
9:52 AM 54.0 °F - 43.0 °F 66% 29.71 in 10.0 mi East 21.9 mph 33.4 mph N/A   Clear
10:52 AM 57.0 °F - 44.1 °F 62% 29.70 in 10.0 mi East 19.6 mph 31.1 mph N/A   Clear
11:52 AM 60.1 °F - 45.0 °F 57% 29.67 in 10.0 mi East 19.6 mph 28.8 mph N/A   Scattered Clouds
12:52 PM 64.0 °F - 46.9 °F 54% 29.68 in 10.0 mi East 17.3 mph 26.5 mph N/A   Partly Cloudy
1:52 PM 66.9 °F - 46.9 °F 49% 29.62 in 10.0 mi East 18.4 mph 28.8 mph N/A   Clear
2:52 PM 69.1 °F - 46.9 °F 45% 29.59 in 10.0 mi East 21.9 mph 33.4 mph N/A   Partly Cloudy
3:52 PM 70.0 °F - 48.0 °F 46% 29.55 in 10.0 mi East 19.6 mph 27.6 mph N/A Thunderstorm Overcast
4:01 PM 71.1 °F - 48.9 °F 45% 29.55 in 10.0 mi East 18.4 mph 26.5 mph 0.00 in Rain , Thunderstorm Light Thunderstorms and Rain
4:24 PM 61.0 °F - 55.0 °F 81% 29.71 in 2.0 mi West 35.7 mph 50.6 mph 0.08 in Rain , Thunderstorm Thunderstorms and Rain
4:26 PM 57.0 °F - 55.0 °F 93% 29.72 in 1.0 mi West 38.0 mph 50.6 mph 0.19 in Rain , Thunderstorm Heavy Thunderstorms and Rain
4:28 PM 55.0 °F - 54.0 °F 96% 29.75 in 0.5 mi WSW 35.7 mph 50.6 mph 0.47 in Fog , Rain , Thunderstorm Heavy Thunderstorms and Rain
4:33 PM 51.1 °F - 51.1 °F 100% 29.73 in 0.2 mi SSW 8.1 mph 49.5 mph 0.98 in Fog , Rain , Thunderstorm Heavy Thunderstorms and Rain
4:40 PM 53.1 °F - 53.1 °F 100% 29.70 in 0.5 mi Calm Calm - 1.12 in Fog , Rain , Thunderstorm Heavy Thunderstorms and Rain
4:47 PM 53.6 °F - 53.6 °F 100% 29.69 in 1.2 mi Calm Calm - 1.16 in Rain , Thunderstorm Thunderstorms and Rain
4:52 PM 54.0 °F - 54.0 °F 100% 29.70 in 3.0 mi East 6.9 mph - 1.17 in Rain , Thunderstorm Thunderstorms and Rain
4:54 PM 54.0 °F - 54.0 °F 100% 29.69 in 4.0 mi East 6.9 mph - 0.01 in Rain , Thunderstorm Rain
5:03 PM 54.0 °F - 54.0 °F 100% 29.69 in 4.0 mi East 5.8 mph - 0.03 in Rain , Thunderstorm Thunderstorms and Rain
5:15 PM 55.9 °F - 55.9 °F 100% 29.69 in 2.5 mi East 9.2 mph - 0.07 in Rain , Thunderstorm Rain
5:23 PM 55.9 °F - 55.9 °F 100% 29.69 in 3.0 mi East 10.4 mph - 0.10 in Rain , Thunderstorm Rain
5:52 PM 55.9 °F - 55.9 °F 100% 29.67 in 3.0 mi East 13.8 mph 19.6 mph 0.22 in Rain Rain
6:01 PM 55.9 °F - 55.9 °F 100% 29.69 in 3.0 mi East 10.4 mph - 0.04 in Rain , Thunderstorm Thunderstorms and Rain
6:13 PM 57.0 °F - 57.0 °F 100% 29.68 in 2.5 mi East 15.0 mph 21.9 mph 0.10 in Rain , Thunderstorm Thunderstorms and Rain
6:31 PM 57.0 °F - 57.0 °F 100% 29.65 in 2.0 mi East 11.5 mph 18.4 mph 0.21 in Rain , Thunderstorm Heavy Thunderstorms and Rain
6:39 PM 57.0 °F - 57.0 °F 100% 29.63 in 3.0 mi East 13.8 mph 25.3 mph 0.24 in Rain Rain
6:52 PM 55.9 °F - 55.9 °F 100% 29.57 in 4.0 mi ENE 21.9 mph 32.2 mph 0.27 in Rain , Thunderstorm Light Rain
7:11 PM 55.9 °F - 55.9 °F 100% 29.60 in 10.0 mi East 19.6 mph 28.8 mph 0.01 in   Mostly Cloudy
7:30 PM 55.9 °F - 55.0 °F 97% 29.61 in 10.0 mi East 19.6 mph 29.9 mph 0.01 in   Partly Cloudy
7:52 PM 55.9 °F - 54.0 °F 93% 29.60 in 10.0 mi East 18.4 mph 29.9 mph 0.01 in   Partly Cloudy
9:34 PM 54.0 °F - 52.0 °F 93% 29.66 in 10.0 mi East 18.4 mph 29.9 mph N/A   Mostly Cloudy
9:52 PM 54.0 °F - 52.0 °F 93% 29.65 in 10.0 mi East 18.4 mph 28.8 mph N/A   Overcast
10:02 PM 54.0 °F - 52.0 °F 93% 29.63 in 10.0 mi East 17.3 mph 27.6 mph N/A   Overcast
10:52 PM 55.0 °F - 54.0 °F 96% 29.62 in 10.0 mi East 15.0 mph 28.8 mph 0.02 in Rain Light Rain